Showing default

UWE-4, 43880

Orbit data source: Space-Track

UWE-4, 43880 is a payload satellite owned by U Wurzburg (DE) in SSO that was launched on Thu, 27 Dec 2018 UTC via a SOYUZ-2-1A launch vehicle from the Vostochny Cosmodrome (VOSTO). Payload-class satellites include a variety of spacecraft equipped with specific instruments for various scientific and technological missions. These include communications satellites like Starlink; space stations such as the ISS; scientific satellites like the Hubble; Earth observation satellites from companies like Planet Labs, Umbra, and HawkEye 360; GPS; miniature CubeSats for education and research; and military/defense satellites.

Loading next visibility...
Identifier
43880, 2018-111E
Orbit
SSO
Country
Flag of DEDE / GER
Related business
Manufacturer
U Wurzburg
Mission
Operational Amateur Technology
Bus & Motor
CUBESAT 1U, Unknown motor
Mass
1 kg wet, 1 kg dry
Launch date (UTC)
2018-12-27 (7 years ago)
Launch vehicle
SOYUZ-2-1A
Launch site
Vostochny Cosmodrome (VOSTO)
Object type
Payload
Rocket body
Debris
Shape & HBR
Box, 0.1 m
Radar Cross Section
0.015 m², Small (<0.1 m²)

Expand to show TLE details & history
Last TLE update: 7 hours ago

TLE from 7 hours ago
0 UWE-4
1 43880U 18111E   25293.03020949  .00035647  00000-0  11883-2 0  9991
2 43880  97.5828 208.2256 0013674 100.1755 260.1029 15.30918127373852
Epoch: 2025-10-20T00:43Z
TLE epoch observation values (Epoch: 2025-10-20T00:43:30.099Z)
Latitude
-0°
Longitude
168.61181°
Altitude
477.795 km
Speed
7.626 km/s
True Right ascension
13h 52m 54s
True Declination
0° 00' 00"
Sunlit
Object was in daylight at epoch
Visualization orbit readout
Latitude
Unknown
Longitude
Unknown
Altitude
Unknown
Speed
Unknown
Apparent Right ascension
Unknown
Apparent Declination
Unknown
Sunlit
N/A
Visualization observer readout
Local Sidereal Time
02:21:33
Azimuth
Unknown
Elevation
Unknown
Doppler factor
Unknown
Orbital elements
Apogee altitude
479.395 km
Perigee altitude
460.666 km
Semi-major axis
6,848.168 km
Eccentricity
0.00137
Inclination
97.5828°
RAAN
208.2256°
Arg. of periapsis
100.1755°
True anomaly
259.94858°
Mean anomaly
260.1029°
Eccentric anomaly
260.02574°
Mean motion
3.82985 °/min
Orbital period
94 mins
BSTAR
0.0011883
Loading maneuver chart data...
Computing Atmospheric mass density...
Loading historical data...
Loading historical data...
Loading historical data...
Loading historical data...
Loading historical data...
Loading historical data...
Loading historical data...

Documentation

Showing up to 5 results
|